Weather History for KPMV - January, 2013

Change the Weather History Date:

Friday, January 18, 2013

  Actual Average (KOFF) Record (KOFF)
Temperature  
Mean Temperature 42 °F -  
Max Temperature 54 °F 31 °F 57 °F (2015)
Min Temperature 30 °F 14 °F -2 °F (1997)
Degree Days  
Heating Degree Days 23    
Moisture  
Dew Point 29 °F    
Average Humidity 66    
Maximum Humidity 88    
Minimum Humidity 39    
Precipitation  
Precipitation 0.00 in - - ()
Sea Level Pressure  
Sea Level Pressure 30.04 in    
Wind  
Wind Speed 12 mph (SSW)    
Max Wind Speed 25 mph    
Max Gust Speed 32 mph    
Visibility 10 miles    
Events      
Averages and records for this station are not official NWS values.
T = Trace of Precipitation, MM = Missing Value Source: NWS Daily Summary

Daily Weather History Graph

Daily Weather History Graph

Search for Another Location

Airport or City:

Trip Planner

Search our weather history database for the weather conditions in past years. The results will help you decide how hot, cold, wet, or windy it might be!

Date:

Astronomy

Jan. 18, 2013 Rise Set
Actual Time 7:44 AM CST 5:24 PM CST
Civil Twilight 7:14 AM CST 5:54 PM CST
Nautical Twilight 6:40 AM CST 6:27 PM CST
Astronomical Twilight 6:08 AM CST 7:00 PM CST
Moon 11:19 AM CST (1/18) 12:19 AM CST (1/18)
Length of Visible Light 10h 39m
Length of Day
9h 39m
Waxing Crescent, 47% of the Moon is Illuminated
Jan 18
Waxing Crescent
Jan 18
First Quarter
Jan 26
Full
Feb 3
Last Quarter
Feb 10
New

Hourly Weather History & Observations

Time (CST) Temp. Windchill Dew Point Humidity Pressure Visibility Wind Dir Wind Speed Gust Speed Precip Events Conditions
12:15 AM 32.0 °F 24.2 °F 28.6 °F 87% 30.28 in 10.0 mi SSE 9.2 mph - N/A   Clear
12:35 AM 32.0 °F 24.8 °F 28.6 °F 87% 30.28 in 10.0 mi SSE 8.1 mph - N/A   Clear
12:55 AM 31.5 °F 24.2 °F 28.2 °F 88% 30.26 in 10.0 mi SSE 8.1 mph - N/A   Clear
1:15 AM 30.9 °F 22.8 °F 27.9 °F 88% 30.25 in 7.0 mi SSE 9.2 mph - N/A   Clear
1:35 AM 31.5 °F 23.5 °F 28.2 °F 88% 30.25 in 10.0 mi SSE 9.2 mph - N/A   Clear
1:55 AM 30.7 °F 24.1 °F 27.5 °F 88% 30.25 in 10.0 mi SSE 6.9 mph - N/A   Clear
2:15 AM 31.1 °F 23.7 °F 27.9 °F 88% 30.24 in 10.0 mi SSE 8.1 mph - N/A   Clear
2:35 AM 30.9 °F 22.2 °F 27.5 °F 87% 30.23 in 10.0 mi SSE 10.4 mph 16.1 mph N/A   Clear
2:55 AM 30.7 °F 22.0 °F 27.3 °F 87% 30.22 in 10.0 mi South 10.4 mph - N/A   Clear
3:15 AM 30.2 °F 20.8 °F 26.6 °F 86% 30.21 in 10.0 mi South 11.5 mph - N/A   Clear
3:35 AM 30.0 °F 20.5 °F 26.6 °F 87% 30.20 in 10.0 mi South 11.5 mph - N/A   Clear
3:55 AM 30.2 °F 20.8 °F 26.6 °F 86% 30.19 in 10.0 mi South 11.5 mph - N/A   Clear
4:15 AM 30.4 °F 19.1 °F 26.8 °F 86% 30.18 in 10.0 mi South 16.1 mph - N/A   Clear
4:35 AM 32.0 °F 20.8 °F 28.2 °F 86% 30.16 in 10.0 mi South 17.3 mph - N/A   Clear
4:55 AM 32.2 °F 21.4 °F 28.0 °F 85% 30.15 in 10.0 mi South 16.1 mph 24.2 mph N/A   Clear
5:15 AM 32.0 °F 21.2 °F 27.7 °F 84% 30.15 in 10.0 mi South 16.1 mph - N/A   Clear
5:35 AM 31.8 °F 22.3 °F 27.5 °F 84% 30.14 in 10.0 mi South 12.7 mph - N/A   Clear
5:55 AM 31.8 °F 21.4 °F 27.5 °F 84% 30.13 in 10.0 mi South 15.0 mph - N/A   Clear
6:15 AM 32.0 °F 22.1 °F 27.3 °F 83% 30.12 in 10.0 mi South 13.8 mph - N/A   Clear
6:35 AM 32.0 °F 21.6 °F 27.5 °F 83% 30.11 in 10.0 mi South 15.0 mph - N/A   Clear
6:55 AM 32.0 °F 20.8 °F 27.5 °F 83% 30.09 in 10.0 mi South 17.3 mph - N/A   Clear
7:15 AM 33.4 °F 22.7 °F 28.4 °F 82% 30.08 in 10.0 mi South 17.3 mph 23.0 mph N/A   Clear
7:35 AM 34.5 °F 23.1 °F 29.1 °F 81% 30.06 in 10.0 mi South 20.7 mph 26.5 mph N/A   Clear
7:55 AM 35.6 °F 25.2 °F 29.3 °F 78% 30.06 in 10.0 mi South 18.4 mph 26.5 mph N/A   Clear
8:15 AM 36.7 °F 26.9 °F 29.8 °F 76% 30.06 in 10.0 mi South 17.3 mph 25.3 mph N/A   Clear
8:35 AM 38.1 °F 29.1 °F 30.2 °F 73% 30.06 in 10.0 mi South 16.1 mph - N/A   Clear
8:55 AM 39.4 °F 30.7 °F 30.6 °F 71% 30.07 in 10.0 mi SSW 16.1 mph 24.2 mph N/A   Clear
9:15 AM 40.5 °F 31.5 °F 30.9 °F 69% 30.06 in 10.0 mi SSW 18.4 mph 24.2 mph N/A   Clear
9:35 AM 41.5 °F 33.5 °F 31.6 °F 68% 30.06 in 10.0 mi SSW 16.1 mph 24.2 mph N/A   Clear
9:55 AM 43.2 °F 34.5 °F 31.6 °F 64% 30.06 in 10.0 mi SSW 20.7 mph 26.5 mph N/A   Clear
10:15 AM 44.2 °F 35.0 °F 31.1 °F 60% 30.06 in 10.0 mi SSW 25.3 mph 28.8 mph N/A   Clear
10:35 AM 45.5 °F 37.3 °F 31.3 °F 58% 30.04 in 10.0 mi SSW 21.9 mph 31.1 mph N/A   Clear
10:55 AM 46.0 °F 38.3 °F 31.1 °F 56% 30.04 in 10.0 mi SSW 20.7 mph 32.2 mph N/A   Clear
11:15 AM 46.8 °F - 30.9 °F 54% 30.03 in 10.0 mi SSW 21.9 mph 28.8 mph N/A   Clear
11:35 AM 48.0 °F - 31.1 °F 52% 30.01 in 10.0 mi SSW 20.7 mph 29.9 mph N/A   Clear
11:55 AM 48.9 °F - 31.3 °F 51% 30.00 in 10.0 mi SSW 19.6 mph 26.5 mph N/A   Clear
12:15 PM 50.0 °F - 31.6 °F 49% 29.98 in 10.0 mi SSW 18.4 mph 24.2 mph N/A   Clear
12:35 PM 50.7 °F - 31.5 °F 48% 29.97 in 10.0 mi SW 17.3 mph 25.3 mph N/A   Clear
12:55 PM 51.6 °F - 31.1 °F 45% 29.96 in 10.0 mi SSW 17.3 mph 21.9 mph N/A   Clear
1:15 PM 52.9 °F - 31.5 °F 44% 29.96 in 10.0 mi WSW 15.0 mph 19.6 mph N/A   Clear
1:35 PM 53.2 °F - 30.9 °F 43% 29.95 in 10.0 mi SW 18.4 mph 24.2 mph N/A   Clear
1:55 PM 53.2 °F - 31.3 °F 43% 29.95 in 10.0 mi SW 16.1 mph - N/A   Clear
2:15 PM 53.8 °F - 30.9 °F 42% 29.94 in 10.0 mi SW 18.4 mph - N/A   Clear
2:35 PM 54.1 °F - 30.2 °F 40% 29.94 in 10.0 mi SW 15.0 mph 21.9 mph N/A   Clear
2:55 PM 54.5 °F - 30.2 °F 39% 29.94 in 10.0 mi WSW 16.1 mph 23.0 mph N/A   Clear
3:15 PM 54.5 °F - 30.4 °F 40% 29.94 in 10.0 mi WSW 15.0 mph - N/A   Clear
3:35 PM 53.8 °F - 30.0 °F 40% 29.93 in 10.0 mi SW 16.1 mph 19.6 mph N/A   Clear
3:55 PM 53.8 °F - 30.7 °F 41% 29.93 in 10.0 mi SW 15.0 mph - N/A   Clear
4:15 PM 53.2 °F - 30.7 °F 42% 29.93 in 10.0 mi SW 12.7 mph - N/A   Clear
4:35 PM 52.2 °F - 30.2 °F 43% 29.92 in 10.0 mi SSW 13.8 mph 19.6 mph N/A   Clear
4:55 PM 50.7 °F - 30.4 °F 46% 29.94 in 10.0 mi SW 6.9 mph - N/A   Clear
5:15 PM 48.2 °F - 30.7 °F 51% 29.95 in 10.0 mi WSW 3.5 mph - N/A   Clear
5:35 PM 46.8 °F - 30.2 °F 53% 29.95 in 10.0 mi South 3.5 mph - N/A   Clear
5:55 PM 44.6 °F 42.2 °F 29.7 °F 56% 29.95 in 10.0 mi SSW 4.6 mph - N/A   Clear
6:15 PM 44.1 °F 40.1 °F 30.0 °F 58% 29.95 in 10.0 mi SSW 6.9 mph - N/A   Clear
6:35 PM 43.3 °F 40.7 °F 29.7 °F 59% 29.96 in 10.0 mi SSW 4.6 mph - N/A   Clear
6:55 PM 44.1 °F - 30.0 °F 58% 29.96 in 10.0 mi Calm Calm - N/A   Clear
7:15 PM 41.4 °F 38.4 °F 29.3 °F 62% 29.96 in 10.0 mi SSW 4.6 mph - N/A   Clear
7:35 PM 42.8 °F 41.1 °F 29.8 °F 60% 29.96 in 10.0 mi South 3.5 mph - N/A   Clear
7:55 PM 41.0 °F 39.0 °F 29.3 °F 63% 29.96 in 10.0 mi SSW 3.5 mph - N/A   Clear
8:15 PM 41.4 °F 37.6 °F 29.7 °F 63% 29.95 in 10.0 mi SSW 5.8 mph - N/A   Clear
8:35 PM 39.0 °F 34.8 °F 28.9 °F 67% 29.94 in 10.0 mi South 5.8 mph - N/A   Clear
8:55 PM 38.8 °F 33.8 °F 29.1 °F 68% 29.94 in 10.0 mi SSW 6.9 mph - N/A   Clear
9:15 PM 38.3 °F 33.2 °F 28.8 °F 69% 29.93 in 10.0 mi SSW 6.9 mph - N/A   Clear
9:35 PM 37.4 °F 33.8 °F 28.6 °F 70% 29.93 in 10.0 mi South 4.6 mph - N/A   Clear
9:55 PM 38.3 °F 34.8 °F 28.6 °F 68% 29.92 in 10.0 mi SSE 4.6 mph - N/A   Clear
10:15 PM 35.8 °F 28.8 °F 27.9 °F 73% 29.92 in 10.0 mi South 9.2 mph - N/A   Clear
10:35 PM 37.4 °F 30.8 °F 28.8 °F 71% 29.91 in 10.0 mi SSW 9.2 mph - N/A   Clear
10:55 PM 38.5 °F 32.1 °F 29.1 °F 69% 29.91 in 10.0 mi South 9.2 mph - N/A   Clear
11:15 PM 39.2 °F 32.5 °F 29.3 °F 68% 29.90 in 10.0 mi SSW 10.4 mph - N/A   Clear
11:35 PM 38.8 °F 33.2 °F 29.1 °F 68% 29.90 in 10.0 mi SSW 8.1 mph - N/A   Clear
11:55 PM 39.2 °F 32.5 °F 29.3 °F 68% 29.89 in 10.0 mi SSW 10.4 mph - N/A   Clear